(171794) = 2001 DM7

Discovered at Oizumi on 2001-02-16 by T. Kobayashi.

Orbit

Orbit type: Main Belt

Note: WebGL enabled browser required.

epoch2024-03-31.0
epoch JD2460400.5
perihelion date2023-08-12.25277
perihelion JD2460168.75277
argument of perihelion (°)103.13443
ascending node (°)60.18498
inclination (°)4.39408
eccentricity0.0932656
perihelion distance (AU)2.1860862
Tisserand w.r.t. Jupiter3.5
ΔV w.r.t. Earth (km/sec)9.3
semimajor axis (AU)2.4109443
mean anomaly (°)61.01514
mean daily motion (°/day)0.26328320
aphelion distance (AU)2.636
period (years)3.74
P-vector [x]-0.95543625
P-vector [y]0.23236580
P-vector [z]0.18206514
Q-vector [x]-0.28761552
Q-vector [y]-0.87164425
Q-vector [z]-0.39687984
absolute magnitude16.5
phase slope0.15
uncertainty0
referenceMPEC 2024-E179
observations used598
oppositions17
arc length (days)8398
first opposition used2001
last opposition used2024
residual rms (arc-secs)0.77
perturbers coarse indicatorM-v
perturbers precise indicator003Ek
first observation date used2001-02-16.0
last observation date used2024-02-14.0
computer nameMPCLINUX
JD of orbit computation2456966.812954
perihelion JD uncertainty (days)9.0614E-05
argument of perihelion uncertainty (°)5.9812E-05
ascending node uncertainty (°)5.4742E-05
inclination uncertainty (°)3.9370E-06
eccentricity uncertainty 4.6436E-08
perihelion distance uncertainty (AU)1.1561E-07
Minimum Orbit Intersection Distances (in AU)
for orbit epoch: 2460400.5, reference: E2024-DC7
Mercury1.79711
Venus1.46704
Earth1.19889
Mars0.52816
Jupiter2.33823
Saturn6.6554
Uranus16.2576
Neptune27.2452

Observations

613 total observations over interval: 2001 02 16.69254 – 2024 02 14.660257
These data are available for download (format description).

Date (UT) J2000 RA J2000 Dec Magn Location Ref
2001 02 16.69254 11 45 29.95 +09 46 00.3 19.5   411 – Oizumi MPS 26991
2001 02 16.71183 11 45 29.15 +09 46 05.0   411 – Oizumi MPS 26991
2001 02 17.37132 11 45 04.77 +09 49 40.9 18.6   704 – Lincoln Laboratory ETS, New Mexico MPS 26991
2001 02 17.38542 11 45 04.24 +09 49 44.7 18.8   704 – Lincoln Laboratory ETS, New Mexico MPS 26991
2001 02 17.39947 11 45 03.54 +09 49 50.8 18.9   704 – Lincoln Laboratory ETS, New Mexico MPS 26991
2001 02 17.41349 11 45 03.01 +09 49 54.2 19.3   704 – Lincoln Laboratory ETS, New Mexico MPS 26991
2001 02 17.42760 11 45 02.50 +09 49 57.9 18.8   704 – Lincoln Laboratory ETS, New Mexico MPS 26991
2001 02 18.61553 11 44 16.95 +09 56 31.7   411 – Oizumi MPS 26991
2001 02 18.63823 11 44 15.90 +09 56 39.0   411 – Oizumi MPS 26991
2001 03 03.30277 11 34 09.71 +11 09 18.9 18.8   704 – Lincoln Laboratory ETS, New Mexico MPS 28011
2001 03 03.31590 11 34 09.00 +11 09 22.8 19.3   704 – Lincoln Laboratory ETS, New Mexico MPS 28011
2001 03 03.32902 11 34 08.21 +11 09 27.5 18.3   704 – Lincoln Laboratory ETS, New Mexico MPS 28011
2001 03 03.34214 11 34 07.47 +11 09 31.9 18.6   704 – Lincoln Laboratory ETS, New Mexico MPS 28011
2001 03 03.35528 11 34 06.71 +11 09 37.0 18.6   704 – Lincoln Laboratory ETS, New Mexico MPS 28011
2001 03 15.50450 11 22 42.98 +12 11 32.6 20.3   608 – Haleakala-AMOS MPS 28012
2001 03 15.51509 11 22 42.41 +12 11 35.2 20.4   608 – Haleakala-AMOS MPS 28012
2001 03 15.52658 11 22 41.73 +12 11 37.9 19.8   608 – Haleakala-AMOS MPS 28012
2001 03 18.37565 11 20 03.85 +12 23 16.7 20.1   608 – Haleakala-AMOS MPS 28012
2001 03 18.38664 11 20 03.21 +12 23 19.8 20.0   608 – Haleakala-AMOS MPS 28012
2001 03 18.39768 11 20 02.56 +12 23 21.9 19.5   608 – Haleakala-AMOS MPS 28012
2001 03 19.24755 11 19 16.22 +12 26 33.9 18.9   704 – Lincoln Laboratory ETS, New Mexico MPS 28012
2001 03 19.26052 11 19 15.44 +12 26 37.1 19.4   704 – Lincoln Laboratory ETS, New Mexico MPS 28012
2001 03 19.27347 11 19 14.84 +12 26 38.7 19.1   704 – Lincoln Laboratory ETS, New Mexico MPS 28012
2001 03 19.28642 11 19 13.96 +12 26 40.1 19.3   704 – Lincoln Laboratory ETS, New Mexico MPS 28012
2001 03 26.24321 11 13 17.53 +12 47 39.6 18.6   704 – Lincoln Laboratory ETS, New Mexico MPS 28012
2001 03 26.25554 11 13 16.93 +12 47 41.4 18.4   704 – Lincoln Laboratory ETS, New Mexico MPS 28012
2001 03 26.26789 11 13 16.37 +12 47 43.9 18.8   704 – Lincoln Laboratory ETS, New Mexico MPS 28012
2001 03 26.28024 11 13 15.74 +12 47 45.4 18.7   704 – Lincoln Laboratory ETS, New Mexico MPS 28012
2001 03 26.29270 11 13 15.04 +12 47 47.7 19.2   704 – Lincoln Laboratory ETS, New Mexico MPS 28012
2001 03 26.42427 11 13 08.87 +12 48 05.8 20.0   608 – Haleakala-AMOS MPS 28012
2001 03 26.43494 11 13 08.32 +12 48 06.8 19.7   608 – Haleakala-AMOS MPS 28012
2001 03 26.44581 11 13 07.82 +12 48 08.1 19.7   608 – Haleakala-AMOS MPS 28012
2001 03 27.18049 11 12 33.63 +12 49 43.0 18.5 R 699 – Lowell Observatory-LONEOS MPS 28012
2001 03 27.18983 11 12 33.21 +12 49 44.5   699 – Lowell Observatory-LONEOS MPS 28012
2001 03 27.19918 11 12 32.73 +12 49 45.6   699 – Lowell Observatory-LONEOS MPS 28012
2001 03 27.20854 11 12 32.34 +12 49 47.9   699 – Lowell Observatory-LONEOS MPS 28012
2001 03 29.12459 11 11 06.00 +12 53 23.0 18.4 R 699 – Lowell Observatory-LONEOS MPS 28012
2001 03 29.15105 11 11 04.70 +12 53 26.0   699 – Lowell Observatory-LONEOS MPS 28012
2001 03 29.17756 11 11 03.44 +12 53 29.0   699 – Lowell Observatory-LONEOS MPS 28012
2001 03 29.20416 11 11 02.25 +12 53 31.8   699 – Lowell Observatory-LONEOS MPS 28012
2001 03 31.21783 11 09 36.87 +12 56 26.7 18.8   704 – Lincoln Laboratory ETS, New Mexico MPS 28012
2001 03 31.23226 11 09 36.23 +12 56 26.8 18.9   704 – Lincoln Laboratory ETS, New Mexico MPS 28012
2001 03 31.24657 11 09 35.56 +12 56 27.4 19.0   704 – Lincoln Laboratory ETS, New Mexico MPS 28012
2001 03 31.26128 11 09 35.07 +12 56 29.0 19.4   704 – Lincoln Laboratory ETS, New Mexico MPS 28012
2001 04 16.15626 11 02 16.30 +12 48 04.0 19.4 R 699 – Lowell Observatory-LONEOS MPS 29539
2001 04 16.18692 11 02 15.77 +12 47 59.2   699 – Lowell Observatory-LONEOS MPS 29539
2001 04 16.21975 11 02 15.40 +12 47 56.3   699 – Lowell Observatory-LONEOS MPS 29539
2001 04 16.25082 11 02 14.89 +12 47 51.2   699 – Lowell Observatory-LONEOS MPS 29539
2003 11 16.24846 03 37 34.41 +18 43 43.9 19.6 V 703 – Catalina Sky Survey MPS 90928
2003 11 16.25979 03 37 33.65 +18 43 41.5 18.2 V 703 – Catalina Sky Survey MPS 90928
2003 11 16.27122 03 37 32.97 +18 43 42.0 19.4 V 703 – Catalina Sky Survey MPS 90928
2003 11 16.28260 03 37 32.02 +18 43 39.8 18.1 V 703 – Catalina Sky Survey MPS 90928
2003 11 18.25684 03 35 23.38 +18 40 15.5 19.7 V 691 – Steward Observatory, Kitt Peak-Spacewatch MPS 90928
2003 11 18.28496 03 35 21.47 +18 40 12.8 19.6 V 691 – Steward Observatory, Kitt Peak-Spacewatch MPS 90928
2003 11 18.31390 03 35 19.52 +18 40 09.8 19.7 V 691 – Steward Observatory, Kitt Peak-Spacewatch MPS 90928
2003 11 21.26317 03 32 06.66 +18 34 56.0 19.8   704 – Lincoln Laboratory ETS, New Mexico MPS 91751
2003 11 21.28875 03 32 04.86 +18 34 52.5 20.0   704 – Lincoln Laboratory ETS, New Mexico MPS 91751
2003 11 21.30172 03 32 03.97 +18 34 51.7 20.4   704 – Lincoln Laboratory ETS, New Mexico MPS 91751
2003 11 21.31470 03 32 03.14 +18 34 50.4 20.2   704 – Lincoln Laboratory ETS, New Mexico MPS 91751
2003 11 28.16633 03 24 44.38 +18 22 33.3 20.6 V 691 – Steward Observatory, Kitt Peak-Spacewatch MPS 92664
2003 11 28.34534 03 24 32.86 +18 22 14.8 20.6 V 691 – Steward Observatory, Kitt Peak-Spacewatch MPS 92664
2003 11 28.37210 03 24 31.16 +18 22 11.9 20.1 V 691 – Steward Observatory, Kitt Peak-Spacewatch MPS 92664
2003 12 01.27924 03 21 34.65 +18 17 14.3 20.4 V 291 – LPL/Spacewatch II MPS 92664
2003 12 01.30362 03 21 33.15 +18 17 11.8 20.4 V 291 – LPL/Spacewatch II MPS 92664
2003 12 01.33068 03 21 31.46 +18 17 09.0 20.5 V 291 – LPL/Spacewatch II MPS 92664
2003 12 21.20414 03 06 21.61 +17 56 19.6 19.6   704 – Lincoln Laboratory ETS, New Mexico MPS 94580
2003 12 21.21736 03 06 21.20 +17 56 19.5 20.4   704 – Lincoln Laboratory ETS, New Mexico MPS 94580
2003 12 21.23080 03 06 20.77 +17 56 20.7 20.0   704 – Lincoln Laboratory ETS, New Mexico MPS 94580
2003 12 21.24400 03 06 20.40 +17 56 19.1 19.9   704 – Lincoln Laboratory ETS, New Mexico MPS 94580
2003 12 21.25735 03 06 20.01 +17 56 19.3 20.1   704 – Lincoln Laboratory ETS, New Mexico MPS 94580
2003 12 22.07982 03 05 56.99 +17 56 10.4 21.3 V 691 – Steward Observatory, Kitt Peak-Spacewatch MPS 94580
2003 12 22.10851 03 05 56.16 +17 56 11.5 22.1 V 691 – Steward Observatory, Kitt Peak-Spacewatch MPS 94580
2003 12 22.13705 03 05 55.32 +17 56 10.3 22.1 V 691 – Steward Observatory, Kitt Peak-Spacewatch MPS 94580
2005 02 09.44024 14 15 38.63 -08 56 19.4 21.2 V 691 – Steward Observatory, Kitt Peak-Spacewatch MPS 126338
2005 02 09.46606 14 15 39.79 -08 56 25.1 20.6 V 691 – Steward Observatory, Kitt Peak-Spacewatch MPS 126338
2005 02 09.49125 14 15 40.94 -08 56 29.6 20.6 V 691 – Steward Observatory, Kitt Peak-Spacewatch MPS 126338
2005 04 05.35184 14 14 32.89 -08 52 13.6 18.3 R 703 – Catalina Sky Survey MPS 130634
2005 04 05.35838 14 14 32.53 -08 52 13.1 18.5 R 703 – Catalina Sky Survey MPS 130634
2005 04 05.36492 14 14 32.14 -08 52 11.3 18.4 R 703 – Catalina Sky Survey MPS 130634
2005 04 05.37149 14 14 31.95 -08 52 10.5 19.8 R 703 – Catalina Sky Survey MPS 130634
2005 04 06.35987 14 13 43.07 -08 49 14.9 19.3 V 691 – Steward Observatory, Kitt Peak-Spacewatch MPS 130634
2005 04 06.37768 14 13 42.12 -08 49 11.4 19.5 V 691 – Steward Observatory, Kitt Peak-Spacewatch MPS 130634
2005 04 06.39527 14 13 41.19 -08 49 08.5 19.4 V 691 – Steward Observatory, Kitt Peak-Spacewatch MPS 130634
2005 04 07.33123 14 12 53.94 -08 46 19.8 19.3   704 – Lincoln Laboratory ETS, New Mexico MPS 130634
2005 04 07.36617 14 12 52.12 -08 46 13.2 19.3   704 – Lincoln Laboratory ETS, New Mexico MPS 130634
2005 04 07.37693 14 12 51.45 -08 46 12.0 19.2   704 – Lincoln Laboratory ETS, New Mexico MPS 130634
2005 04 18.32059 14 02 42.93 -08 11 55.3 19.1 V 691 – Steward Observatory, Kitt Peak-Spacewatch MPS 132525
